DK8DX-13 Weather Reports


time (UTC)temp
F
wind
direction
speed
knots
gust
knots
rain 1hr
in
rain 24hr
in
rain mn
in
humidity
%
barometer
mb
20260508184901 52 66 0.0 0.9 0.00 0.00 0.00 76 1020.6
20260508184451 52 75 0.0 1.7 0.00 0.00 0.00 75 1020.5
20260508184046 52 71 0.0 2.6 0.00 0.00 0.00 75 1020.5
20260508183641 52 71 0.0 2.6 0.00 0.00 0.00 75 1020.5
20260508183211 53 70 0.0 5.2 0.00 0.00 0.00 74 1020.5
20260508182731 53 70 0.0 7.0 0.00 0.00 0.00 74 1020.4
20260508182307 53 80 0.0 2.6 0.00 0.00 0.00 74 1020.4
20260508181843 53 78 0.0 5.2 0.00 0.00 0.00 75 1020.4
20260508181406 54 54 0.0 2.6 0.00 0.00 0.00 74 1020.4
20260508180941 54 68 0.0 3.5 0.00 0.00 0.00 73 1020.3
20260508180526 54 119 0.0 3.5 0.00 0.00 0.00 73 1020.3
20260508180041 54 119 0.0 3.5 0.00 0.00 0.00 73 1020.3
20260508175621 54 0.0 2.6 0.00 0.00 0.00 72 1020.2
20260508175136 55 74 0.0 3.5 0.00 0.00 0.00 71 1020.2
20260508174726 55 60 0.0 5.2 0.00 0.00 0.00 70 1020.2
20260508174256 55 72 0.0 5.2 0.00 0.00 0.00 70 1020.2
20260508173813 55 75 0.0 7.0 0.00 0.00 0.00 71 1020.1
20260508173356 56 77 0.0 3.5 0.00 0.00 0.00 71 1020.1
20260508172901 56 87 0.0 5.2 0.00 0.00 0.00 71 1020.2
20260508172443 56 72 0.0 3.5 0.00 0.00 0.00 71 1020.1
20260508172001 56 63 0.0 6.1 0.00 0.00 0.00 70 1020.0
20260508171541 56 63 0.0 6.1 0.00 0.00 0.00 70 1020.0
20260508171136 56 70 0.0 7.0 0.00 0.00 0.00 70 1019.9
20260508170651 56 53 0.0 7.8 0.00 0.00 0.00 70 1019.9
20260508170231 56 90 0.0 6.1 0.00 0.00 0.00 70 1020.0
20260508165801 56 90 0.0 6.1 0.00 0.00 0.00 68 1020.0
20260508165326 57 73 0.0 7.0 0.00 0.00 0.00 68 1020.0
20260508164916 57 13 0.0 6.1 0.00 0.00 0.00 68 1020.0
20260508164446 57 94 0.0 3.5 0.00 0.00 0.00 67 1019.9
20260508164021 57 94 0.0 3.5 0.00 0.00 0.00 67 1019.9
20260508163601 57 91 0.0 5.2 0.00 0.00 0.00 67 1020.0
20260508163131 57 91 0.0 5.2 0.00 0.00 0.00 67 1020.0
20260508162701 57 85 0.0 6.1 0.00 0.00 0.00 67 1020.0
20260508162226 57 69 0.0 6.1 0.00 0.00 0.00 66 1020.0
20260508161811 57 65 0.0 7.8 0.00 0.00 0.00 67 1020.0
20260508161356 57 80 0.0 7.8 0.00 0.00 0.00 66 1019.9
20260508160936 57 79 0.0 5.2 0.00 0.00 0.00 65 1020.0
20260508160521 58 86 0.0 6.1 0.00 0.00 0.00 65 1020.0
20260508160036 57 66 0.0 5.2 0.00 0.00 0.00 67 1020.0
20260508155615 57 66 0.0 5.2 0.00 0.00 0.00 67 1020.0
20260508155156 57 87 0.0 3.5 0.00 0.00 0.00 67 1020.0
20260508154726 57 88 0.0 6.1 0.00 0.00 0.00 67 1020.0
20260508154241 57 64 0.0 7.8 0.00 0.00 0.00 68 1020.1
20260508153821 57 86 0.0 3.5 0.00 0.00 0.00 70 1020.1
20260508153346 57 60 0.0 6.1 0.00 0.00 0.00 69 1020.2
20260508152916 57 135 0.0 6.1 0.00 0.00 0.00 70 1020.2
20260508152449 57 62 0.0 6.1 0.00 0.00 0.00 69 1020.3
20260508152021 57 62 0.0 6.1 0.00 0.00 0.00 69 1020.3
20260508151556 57 56 0.0 9.6 0.00 0.00 0.00 70 1020.3
20260508151121 57 56 0.0 9.6 0.00 0.00 0.00 70 1020.3
20260508150651 56 88 0.0 5.2 0.00 0.00 0.00 71 1020.4
20260508150226 55 78 0.0 5.2 0.00 0.00 0.00 71 1020.6
20260508145811 55 92 0.0 7.0 0.00 0.00 0.00 70 1020.5
20260508145333 55 85 0.0 5.2 0.00 0.00 0.00 71 1020.5
20260508144906 55 84 0.0 5.2 0.00 0.00 0.00 71 1020.5
20260508144436 55 94 0.0 3.5 0.00 0.00 0.00 71 1020.5
20260508144016 55 83 0.0 5.2 0.00 0.00 0.00 70 1020.5
20260508143541 55 83 0.0 5.2 0.00 0.00 0.00 70 1020.5
20260508143109 55 84 0.0 5.2 0.00 0.00 0.00 71 1020.5
20260508142654 55 84 0.0 5.2 0.00 0.00 0.00 71 1020.5
20260508142242 55 106 0.0 6.1 0.00 0.00 0.00 70 1020.6
20260508141826 55 71 0.0 5.2 0.00 0.00 0.00 71 1020.5
20260508141421 55 130 0.0 3.5 0.00 0.00 0.00 71 1020.5
20260508141001 55 118 0.0 5.2 0.00 0.00 0.00 71 1020.6
20260508140532 55 110 0.0 6.1 0.00 0.00 0.00 72 1020.5
20260508140106 55 110 0.0 6.1 0.00 0.00 0.00 72 1020.5
20260508135651 55 121 0.0 6.1 0.00 0.00 0.00 72 1020.5
20260508135242 55 108 0.0 7.0 0.00 0.00 0.00 71 1020.4
20260508134836 55 138 0.0 5.2 0.00 0.00 0.00 71 1020.6
20260508134426 55 88 0.0 7.0 0.00 0.00 0.00 70 1020.4
20260508133943 55 104 0.0 6.1 0.00 0.00 0.00 69 1020.4
20260508133531 56 98 0.0 7.0 0.00 0.00 0.00 68 1020.3
20260508133056 56 98 0.0 7.0 0.00 0.00 0.00 68 1020.3
20260508132611 57 83 0.0 3.5 0.00 0.00 0.00 66 1020.4
20260508132201 57 83 0.0 3.5 0.00 0.00 0.00 66 1020.4
20260508131731 57 98 0.0 5.2 0.00 0.00 0.00 66 1020.4
20260508131316 57 72 0.0 2.6 0.00 0.00 0.00 66 1020.5
20260508130916 56 73 0.0 5.2 0.00 0.00 0.00 67 1020.4
20260508130436 56 74 0.0 5.2 0.00 0.00 0.00 67 1020.5
20260508130001 56 57 0.0 2.6 0.00 0.00 0.00 68 1020.5
20260508125516 56 68 0.0 3.5 0.00 0.00 0.00 68 1020.6
20260508125041 56 97 0.0 5.2 0.00 0.00 0.00 69 1020.6
20260508124616 56 97 0.0 5.2 0.00 0.00 0.00 69 1020.6
20260508124201 55 102 0.0 3.5 0.00 0.00 0.00 68 1020.6
20260508123736 55 105 0.0 3.5 0.00 0.00 0.00 68 1020.7
20260508123321 55 77 0.0 3.5 0.00 0.00 0.00 69 1020.7
20260508122906 55 79 0.0 6.1 0.00 0.00 0.00 68 1020.7
20260508122441 55 82 0.0 3.5 0.00 0.00 0.00 70 1020.6
20260508122021 55 107 0.0 6.1 0.00 0.00 0.00 69 1020.6
20260508121601 55 107 0.0 6.1 0.00 0.00 0.00 69 1020.6
20260508121110 54 79 0.0 6.1 0.00 0.00 0.00 71 1020.7
20260508120631 54 148 0.0 5.2 0.00 0.00 0.00 71 1020.8
20260508120141 54 79 0.0 5.2 0.00 0.00 0.00 71 1020.7
20260508115701 54 78 0.0 5.2 0.00 0.00 0.00 71 1020.7
20260508115231 54 81 0.0 3.5 0.00 0.00 0.00 72 1020.6
20260508114801 55 103 0.0 3.5 0.00 0.00 0.00 70 1020.7
20260508114401 55 80 0.0 5.2 0.00 0.00 0.00 68 1020.5
20260508113951 56 121 0.0 6.1 0.00 0.00 0.00 68 1020.5
20260508113511 56 82 0.0 3.5 0.00 0.00 0.00 68 1020.5
20260508113041 56 59 0.0 6.1 0.00 0.00 0.00 66 1020.6
20260508112626 56 59 0.0 6.1 0.00 0.00 0.00 66 1020.6
20260508112151 56 123 0.0 3.5 0.00 0.00 0.00 68 1020.7
20260508111721 56 130 0.0 3.5 0.00 0.00 0.00 71 1020.6
20260508111301 55 115 0.0 6.1 0.00 0.00 0.00 72 1020.7
20260508110830 55 127 0.0 5.2 0.00 0.00 0.00 72 1020.7
20260508110351 55 149 0.0 6.1 0.00 0.00 0.00 72 1020.6
20260508105946 55 135 0.0 5.2 0.00 0.00 0.00 72 1020.7
20260508105451 55 91 0.0 5.2 0.00 0.00 0.00 73 1020.8
20260508105021 55 119 0.0 6.1 0.00 0.00 0.00 74 1020.8
20260508104611 54 82 0.0 5.2 0.00 0.00 0.00 74 1020.7
20260508104131 54 82 0.0 5.2 0.00 0.00 0.00 74 1020.7
20260508103701 54 101 0.0 5.2 0.00 0.00 0.00 76 1020.7
20260508103221 54 147 0.0 2.6 0.00 0.00 0.00 77 1020.7
20260508102746 54 24 0.0 0.9 0.00 0.00 0.00 77 1020.7
20260508102316 53 87 0.0 2.6 0.00 0.00 0.00 77 1020.8
20260508101856 53 0.0 0.0 0.00 0.00 0.00 78 1020.8
20260508101416 53 0.0 0.0 0.00 0.00 0.00 78 1020.8
20260508100946 53 0.0 0.0 0.00 0.00 0.00 78 1020.8
20260508100516 53 0.0 0.0 0.00 0.00 0.00 79 1020.8
20260508095626 53 0.0 0.0 0.00 0.00 0.00 79 1020.7
20260508095216 53 0.0 0.0 0.00 0.00 0.00 79 1020.7
20260508094746 53 0.0 0.9 0.00 0.00 0.00 79 1020.8
20260508094303 52 0.0 0.0 0.00 0.00 0.00 79 1020.8
20260508093831 52 0.0 0.0 0.00 0.00 0.00 79 1020.7
20260508093401 52 78 0.0 1.7 0.00 0.00 0.00 79 1020.8
20260508093001 52 0.0 0.0 0.00 0.00 0.00 79 1020.8
20260508092516 53 72 0.0 1.7 0.00 0.00 0.00 79 1020.9
20260508092042 53 69 0.0 1.7 0.00 0.00 0.00 79 1020.8
20260508091606 53 69 0.0 1.7 0.00 0.00 0.00 79 1020.8
20260508091113 53 90 0.0 1.7 0.00 0.00 0.00 79 1020.8
20260508090636 53 90 0.0 1.7 0.00 0.00 0.00 79 1020.8
20260508090201 53 0.0 0.0 0.00 0.00 0.00 80 1020.7
20260508085731 52 0.0 0.0 0.00 0.00 0.00 80 1020.7
20260508085307 52 87 0.0 1.7 0.00 0.00 0.00 79 1020.8
20260508084816 53 99 0.0 2.6 0.00 0.00 0.00 78 1020.8
20260508084356 53 100 0.0 1.7 0.00 0.00 0.00 79 1020.9
20260508083906 53 91 0.0 2.6 0.00 0.00 0.00 78 1020.8
20260508083416 53 119 0.0 1.7 0.00 0.00 0.00 78 1020.9
20260508082956 53 108 0.0 1.7 0.00 0.00 0.00 78 1020.8
20260508082526 53 108 0.0 1.7 0.00 0.00 0.00 78 1020.8
20260508082056 53 126 0.0 0.9 0.00 0.00 0.00 77 1020.7
20260508081623 53 126 0.0 0.9 0.00 0.00 0.00 77 1020.7
20260508081216 54 0.0 0.0 0.00 0.00 0.00 77 1020.7
20260508080801 54 0.0 0.0 0.00 0.00 0.00 75 1020.8
20260508080316 55 46 0.0 1.7 0.00 0.00 0.00 75 1020.6
20260508075856 56 71 0.0 2.6 0.00 0.00 0.00 73 1020.7
20260508075436 57 54 0.0 2.6 0.00 0.00 0.00 72 1020.5
20260508074951 57 93 0.0 1.7 0.00 0.00 0.00 74 1020.5
20260508074451 55 139 0.0 3.5 0.00 0.00 0.00 76 1020.6
20260508074016 54 76 0.0 2.6 0.00 0.00 0.00 78 1020.7
20260508073535 54 76 0.0 2.6 0.00 0.00 0.00 78 1020.7
20260508073131 54 80 0.0 2.6 0.00 0.00 0.00 77 1020.6
20260508072641 54 91 0.0 3.5 0.00 0.00 0.00 78 1020.6
20260508072216 53 97 0.0 0.9 0.00 0.00 0.00 80 1020.6
20260508071741 53 38 0.0 3.5 0.00 0.00 0.00 79 1020.6
20260508071311 53 79 0.0 3.5 0.00 0.00 0.00 81 1020.5
20260508070901 52 73 0.0 5.2 0.00 0.00 0.00 84 1020.6
20260508070441 52 79 0.0 3.5 0.00 0.00 0.00 86 1020.5
20260508070036 52 6 0.0 2.6 0.00 0.00 0.00 86 1020.5
20260508065556 52 6 0.0 2.6 0.00 0.00 0.00 86 1020.5
20260508065131 51 51 0.0 3.5 0.00 0.00 0.00 86 1020.3
20260508064701 51 72 0.0 2.6 0.00 0.00 0.00 88 1020.4
20260508064241 51 67 0.0 6.1 0.00 0.00 0.00 89 1020.4
20260508063751 50 16 0.0 2.6 0.00 0.00 0.00 90 1020.4
20260508063333 49 91 0.0 3.5 0.00 0.00 0.00 90 1020.4
20260508062906 49 57 0.0 2.6 0.00 0.00 0.00 91 1020.4
20260508062441 49 68 0.0 3.5 0.00 0.00 0.00 91 1020.4
20260508062011 49 66 0.0 2.6 0.00 0.00 0.00 92 1020.2
20260508061605 49 66 0.0 2.6 0.00 0.00 0.00 92 1020.2
20260508061146 48 54 0.0 5.2 0.00 0.00 0.00 92 1020.2
20260508060706 47 76 0.0 3.5 0.00 0.00 0.00 93 1020.2
20260508060243 47 0.0 1.7 0.00 0.00 0.00 93 1020.2
20260508055811 46 75 0.0 2.6 0.00 0.00 0.00 93 1020.3
20260508055331 46 83 0.0 1.7 0.00 0.00 0.00 93 1020.3
20260508054901 46 0.0 0.0 0.00 0.00 0.00 93 1020.3
20260508054426 46 0.0 0.0 0.00 0.00 0.00 93 1020.3
20260508054006 46 0.0 0.0 0.00 0.00 0.00 93 1020.3
20260508053541 46 0.0 0.0 0.00 0.00 0.00 93 1020.3
20260508053106 46 0.0 0.0 0.00 0.00 0.00 93 1020.3
20260508052650 46 0.0 0.0 0.00 0.00 0.00 93 1020.3
20260508052206 45 0.0 0.0 0.00 0.00 0.00 93 1020.2
20260508051746 45 0.0 0.0 0.00 0.00 0.00 93 1020.2
20260508051246 45 0.0 0.0 0.00 0.00 0.00 93 1020.1
20260508050801 45 0.0 0.0 0.00 0.00 0.00 93 1020.1
20260508050336 45 0.0 0.0 0.00 0.00 0.00 92 1020.1
20260508045836 45 0.0 0.0 0.00 0.00 0.00 92 1020.0
20260508045408 45 0.0 0.0 0.00 0.00 0.00 92 1019.9
20260508044936 45 0.0 0.0 0.00 0.00 0.00 92 1020.0
20260508044456 45 0.0 0.0 0.00 0.00 0.00 92 1020.0
20260508044043 45 0.0 0.0 0.00 0.00 0.00 92 1020.0
20260508043616 45 0.0 0.0 0.00 0.00 0.00 92 1020.0
20260508043201 45 0.0 0.0 0.00 0.00 0.00 93 1020.0
20260508042726 45 0.0 0.0 0.00 0.00 0.00 93 1019.9
20260508042306 45 0.0 0.0 0.00 0.00 0.00 93 1019.9
20260508041830 46 0.0 0.0 0.00 0.00 0.00 93 1019.9
20260508041356 45 0.0 0.0 0.00 0.00 0.00 93 1019.9
20260508040926 46 0.0 0.0 0.00 0.00 0.00 93 1019.9
20260508040521 45 0.0 0.0 0.00 0.00 0.00 93 1019.8
20260508040046 45 0.0 0.0 0.00 0.00 0.00 93 1019.8
20260508035631 45 0.0 0.0 0.00 0.00 0.00 93 1019.8
20260508035216 45 0.0 0.0 0.00 0.00 0.00 93 1019.9
20260508034756 45 0.0 0.0 0.00 0.00 0.00 93 1019.8
20260508034310 45 0.0 0.0 0.00 0.00 0.00 93 1019.8
20260508033836 45 0.0 0.0 0.00 0.00 0.00 93 1019.8
20260508033356 45 0.0 0.0 0.00 0.00 0.00 93 1019.8
20260508032951 45 0.0 0.0 0.00 0.00 0.00 93 1019.8
20260508032516 45 0.0 0.0 0.00 0.00 0.00 93 1019.8
20260508032036 45 0.0 0.0 0.00 0.00 0.00 93 1019.8
20260508031606 45 0.0 0.0 0.00 0.00 0.00 93 1019.9
20260508031146 45 0.0 0.0 0.00 0.00 0.00 93 1019.7
20260508030717 45 0.0 0.0 0.00 0.00 0.00 93 1019.8
20260508030236 45 0.0 0.0 0.00 0.00 0.00 93 1019.8
20260508025801 45 0.0 0.0 0.00 0.00 0.00 93 1019.8
20260508025306 45 0.0 0.0 0.00 0.00 0.00 93 1019.7
20260508024836 45 0.0 0.0 0.00 0.00 0.00 93 1019.7
20260508024407 45 93 0.0 1.7 0.00 0.00 0.00 93 1019.8
20260508024001 45 83 0.0 1.7 0.00 0.00 0.00 93 1019.8
20260508023536 45 83 0.0 1.7 0.00 0.00 0.00 93 1019.8
20260508023106 45 73 0.0 1.7 0.00 0.00 0.00 93 1019.8
20260508022631 45 73 0.0 1.7 0.00 0.00 0.00 93 1019.8
20260508022146 45 0.0 2.6 0.00 0.00 0.00 93 1019.8
20260508021721 45 91 0.0 3.5 0.00 0.00 0.00 93 1019.9
20260508021246 45 75 0.0 1.7 0.00 0.00 0.00 93 1019.9
20260508020826 45 79 0.0 2.6 0.00 0.00 0.00 93 1019.8
20260508020401 45 86 0.0 1.7 0.00 0.00 0.00 93 1019.8
20260508015946 45 76 0.0 0.9 0.00 0.00 0.00 93 1019.9
20260508015521 45 61 0.0 1.7 0.00 0.00 0.00 93 1019.8
20260508015051 45 61 0.0 1.7 0.00 0.00 0.00 93 1019.8
20260508014601 45 76 0.0 1.7 0.00 0.00 0.00 93 1019.9
20260508014141 45 0.0 0.9 0.00 0.00 0.00 93 1020.0
20260508013706 45 0.0 0.0 0.00 0.00 0.00 93 1019.9
20260508013236 45 0.0 0.0 0.00 0.00 0.00 93 1020.0
20260508012801 45 0.0 0.0 0.00 0.00 0.00 93 1019.9
20260508012326 45 0.0 0.0 0.00 0.00 0.00 93 1019.9
20260508011906 45 0.0 0.0 0.00 0.00 0.00 93 1019.9
20260508011446 45 0.0 0.0 0.00 0.00 0.00 93 1019.8
20260508011001 45 0.0 0.0 0.00 0.00 0.00 93 1019.8
20260508010506 45 0.0 0.0 0.00 0.00 0.00 93 1019.9
20260508010051 45 0.0 0.0 0.00 0.00 0.00 93 1019.9
20260508005616 45 0.0 0.0 0.00 0.00 0.00 93 1019.8
20260508005146 45 0.0 0.0 0.00 0.00 0.00 93 1019.8
20260508004716 45 0.0 0.0 0.00 0.00 0.00 93 1019.8
20260508004231 45 0.0 0.0 0.00 0.00 0.00 93 1019.8
20260508003746 45 0.0 0.0 0.00 0.00 0.00 93 1019.7
20260508003259 45 0.0 0.0 0.00 0.00 0.00 93 1019.8
20260508002841 45 0.0 0.0 0.00 0.00 0.00 93 1019.7
20260508002421 45 0.0 0.0 0.00 0.00 0.00 93 1019.7
20260508001945 45 0.0 0.0 0.00 0.00 0.00 93 1019.8
20260508001049 44 0.0 0.0 0.00 0.00 0.00 93 1019.8
20260508000621 44 0.0 0.0 0.00 0.00 0.00 93 1019.9
20260508000213 44 0.0 0.0 0.00 0.00 0.00 93 1019.8
20260507235746 44 0.0 0.0 0.00 0.00 0.00 93 1019.8
20260507235326 44 0.0 0.0 0.00 0.00 0.00 93 1019.9
20260507234856 44 0.0 0.0 0.00 0.00 0.00 93 1020.0
20260507234426 44 0.0 0.0 0.00 0.00 0.00 93 1020.0
20260507233938 44 0.0 0.0 0.00 0.00 0.00 93 1020.1
20260507233519 44 0.0 0.0 0.00 0.00 0.00 93 1020.1
20260507233101 44 0.0 0.0 0.00 0.00 0.00 93 1020.1
20260507232636 43 0.0 0.0 0.00 0.00 0.00 92 1020.1
20260507232146 43 0.0 0.0 0.00 0.00 0.00 92 1020.1
20260507231716 43 96 0.0 1.7 0.00 0.00 0.00 92 1020.1
20260507231301 42 0.0 0.0 0.00 0.00 0.00 92 1020.1
20260507230836 42 0.0 0.0 0.00 0.00 0.00 92 1020.1
20260507230356 42 0.0 0.0 0.00 0.00 0.00 92 1020.1
20260507225936 43 0.0 0.0 0.00 0.00 0.00 91 1020.1
20260507225516 43 0.0 0.0 0.00 0.00 0.00 91 1020.2
20260507225041 43 0.0 0.0 0.00 0.00 0.00 91 1020.2
20260507224606 43 0.0 0.0 0.00 0.00 0.00 91 1020.0
20260507224141 43 0.0 0.0 0.00 0.00 0.00 91 1020.0
20260507223651 44 0.0 0.0 0.00 0.00 0.00 91 1020.1
20260507223232 44 0.0 0.0 0.00 0.00 0.00 91 1020.0
20260507222802 44 0.0 0.0 0.00 0.00 0.00 91 1020.0
20260507222317 45 0.0 0.0 0.00 0.00 0.00 91 1019.9
20260507221905 45 0.0 0.0 0.00 0.00 0.00 91 1019.9
20260507221431 45 0.0 0.0 0.00 0.00 0.00 92 1019.8
20260507221001 46 0.0 0.0 0.00 0.00 0.00 92 1019.8
20260507220531 46 74 0.0 0.9 0.00 0.00 0.00 92 1019.8
20260507220106 46 74 0.0 0.9 0.00 0.00 0.00 92 1019.8
20260507215626 46 72 0.0 1.7 0.00 0.00 0.00 92 1019.8
20260507215146 46 96 0.0 3.5 0.00 0.00 0.00 92 1019.7
20260507214736 46 87 0.0 2.6 0.00 0.00 0.00 92 1019.8
20260507214249 46 75 0.0 1.7 0.00 0.00 0.00 92 1019.8
20260507213821 46 0.0 0.0 0.00 0.00 0.00 92 1019.7
20260507213401 45 0.0 0.9 0.00 0.00 0.00 92 1019.7
20260507212946 45 76 0.0 0.9 0.00 0.00 0.00 92 1019.6
20260507212511 45 72 0.0 0.9 0.00 0.00 0.00 92 1019.7
20260507212036 45 77 0.0 2.6 0.00 0.00 0.00 92 1019.7
20260507211551 45 77 0.0 2.6 0.00 0.00 0.00 92 1019.7
20260507211106 45 0.0 0.0 0.00 0.00 0.00 92 1019.7
20260507210628 45 0.0 0.0 0.00 0.00 0.00 92 1019.7
20260507210206 45 0.0 0.0 0.00 0.00 0.00 91 1019.7
20260507205746 44 0.0 0.0 0.00 0.00 0.00 91 1019.7
20260507205251 44 0.0 0.0 0.00 0.00 0.00 91 1019.8
20260507204806 44 0.0 0.0 0.00 0.00 0.00 91 1019.8
20260507204336 44 0.0 0.0 0.00 0.00 0.00 91 1019.6
20260507203916 44 0.0 0.0 0.00 0.00 0.00 91 1019.6
20260507203446 44 0.0 0.0 0.00 0.00 0.00 90 1019.6
20260507203010 44 0.0 0.0 0.00 0.00 0.00 90 1019.6
20260507202556 44 0.0 0.0 0.00 0.00 0.00 90 1019.6
20260507202111 45 0.0 0.0 0.00 0.00 0.00 90 1019.6
20260507201649 45 0.0 0.0 0.00 0.00 0.00 90 1019.6
20260507201221 45 0.0 0.0 0.00 0.00 0.00 90 1019.5
20260507200816 45 0.0 0.0 0.00 0.00 0.00 90 1019.6
20260507200331 45 0.0 0.0 0.00 0.00 0.00 90 1019.6
20260507195856 45 0.0 0.0 0.00 0.00 0.00 90 1019.5
20260507195426 46 0.0 0.0 0.00 0.00 0.00 90 1019.4
20260507194956 46 0.0 0.0 0.00 0.00 0.00 90 1019.4
20260507194521 46 0.0 0.0 0.00 0.00 0.00 90 1019.3
20260507194049 46 0.0 0.0 0.00 0.00 0.00 90 1019.3
20260507193621 47 0.0 0.0 0.00 0.00 0.00 90 1019.3
20260507193156 47 0.0 0.0 0.00 0.00 0.00 90 1019.2
20260507192706 47 0.0 0.0 0.00 0.00 0.00 90 1019.2
20260507192236 47 0.0 0.0 0.00 0.00 0.00 90 1019.2
20260507191806 47 0.0 0.0 0.00 0.00 0.00 90 1019.1
20260507191329 47 0.0 0.0 0.00 0.00 0.00 90 1019.1
20260507190846 47 0.0 0.0 0.00 0.00 0.00 90 1019.1
20260507190426 48 0.0 0.0 0.00 0.00 0.00 90 1019.1
20260507190009 48 0.0 0.0 0.00 0.00 0.00 90 1018.9
20260507185554 48 0.0 0.0 0.00 0.00 0.00 90 1018.9
20260507185136 48 0.0 0.0 0.00 0.00 0.00 90 1018.9